| time (UTC) | temp C | wind direction | speed KPH | gust KPH | rain 1hr cm | rain 24hr cm | rain mn cm | humidity % | barometer mb |
| 20260507013009 | 15 | 87 | 3.2 | 6.4 | 0.00 | 0.00 | 0.00 | 71 | 1021.0 |
| 20260507012506 | 15 | 79 | 3.2 | 6.4 | 0.00 | 0.00 | 0.00 | 71 | 1021.2 |
| 20260507012003 | 15 | 66 | 3.2 | 4.8 | 0.00 | 0.00 | 0.00 | 71 | 1021.1 |
| 20260507011500 | 15 | 89 | 6.4 | 11.3 | 0.00 | 0.00 | 0.00 | 70 | 1021.2 |
| 20260507010955 | 15 | 114 | 3.2 | 8.0 | 0.00 | 0.00 | 0.00 | 70 | 1021.2 |
| 20260507010450 | 15 | 83 | 3.2 | 6.4 | 0.00 | 0.00 | 0.00 | 70 | 1021.2 |
| 20260507005947 | 15 | 43 | 0.0 | 8.0 | 0.00 | 0.00 | 0.00 | 70 | 1021.3 |
| 20260507005445 | 15 | 254 | 0.0 | 6.4 | 0.00 | 0.00 | 0.00 | 70 | 1021.3 |
| 20260507004941 | 15 | 225 | 0.0 | 3.2 | 0.00 | 0.00 | 0.00 | 70 | 1021.4 |
| 20260507004438 | 15 | 105 | 6.4 | 9.7 | 0.00 | 0.00 | 0.00 | 70 | 1021.2 |
| 20260507003936 | 15 | 113 | 3.2 | 6.4 | 0.00 | 0.00 | 0.00 | 70 | 1021.5 |
| 20260507003430 | 15 | 105 | 4.8 | 11.3 | 0.00 | 0.00 | 0.00 | 69 | 1021.2 |
| 20260507002926 | 15 | 87 | 4.8 | 6.4 | 0.00 | 0.00 | 0.00 | 70 | 1021.3 |
| 20260507002422 | 15 | 76 | 3.2 | 3.2 | 0.00 | 0.00 | 0.00 | 69 | 1021.2 |
| 20260507001919 | 15 | 219 | 1.6 | 6.4 | 0.00 | 0.00 | 0.00 | 69 | 1021.1 |
| 20260507001416 | 15 | 110 | 6.4 | 12.9 | 0.00 | 0.00 | 0.00 | 69 | 1021.3 |
| 20260507000914 | 15 | 105 | 9.7 | 11.3 | 0.00 | 0.00 | 0.00 | 68 | 1021.1 |
| 20260507000409 | 15 | 119 | 9.7 | 9.7 | 0.00 | 0.00 | 0.00 | 68 | 1021.2 |
| 20260506235905 | 15 | 102 | 4.8 | 9.7 | 0.00 | 0.00 | 0.00 | 69 | 1021.2 |
| 20260506235402 | 15 | 108 | 6.4 | 9.7 | 0.00 | 0.00 | 0.00 | 69 | 1021.2 |
| 20260506234858 | 15 | 121 | 9.7 | 16.1 | 0.00 | 0.00 | 0.00 | 69 | 1021.1 |
| 20260506234355 | 15 | 107 | 4.8 | 14.5 | 0.00 | 0.00 | 0.00 | 69 | 1021.2 |
| 20260506233853 | 15 | 107 | 9.7 | 12.9 | 0.00 | 0.00 | 0.00 | 69 | 1021.1 |
| 20260506233349 | 15 | 114 | 3.2 | 11.3 | 0.00 | 0.00 | 0.00 | 69 | 1021.3 |
| 20260506232846 | 15 | 120 | 11.3 | 16.1 | 0.00 | 0.00 | 0.00 | 68 | 1021.3 |
| 20260506232342 | 15 | 91 | 8.0 | 8.0 | 0.00 | 0.00 | 0.00 | 69 | 1021.3 |
| 20260506231838 | 15 | 63 | 3.2 | 8.0 | 0.00 | 0.00 | 0.00 | 69 | 1021.5 |
| 20260506231336 | 15 | 143 | 3.2 | 8.0 | 0.00 | 0.00 | 0.00 | 69 | 1021.4 |
| 20260506230833 | 15 | 223 | 6.4 | 9.7 | 0.00 | 0.00 | 0.00 | 68 | 1021.4 |
| 20260506230330 | 15 | 216 | 0.0 | 6.4 | 0.00 | 0.00 | 0.00 | 69 | 1021.5 |
| 20260506225826 | 15 | 160 | 3.2 | 9.7 | 0.00 | 0.00 | 0.00 | 70 | 1021.5 |
| 20260506225324 | 15 | 68 | 0.0 | 20.9 | 0.00 | 0.00 | 0.00 | 70 | 1021.2 |
| 20260506224820 | 15 | 239 | 4.8 | 9.7 | 0.00 | 0.00 | 0.00 | 70 | 1021.6 |
| 20260506224318 | 15 | 120 | 6.4 | 17.7 | 0.00 | 0.00 | 0.00 | 70 | 1021.2 |
| 20260506223814 | 15 | 72 | 1.6 | 6.4 | 0.00 | 0.00 | 0.00 | 72 | 1021.5 |
| 20260506223309 | 15 | 217 | 1.6 | 6.4 | 0.00 | 0.00 | 0.00 | 73 | 1021.4 |
| 20260506222807 | 15 | 231 | 3.2 | 4.8 | 0.00 | 0.00 | 0.00 | 72 | 1021.5 |
| 20260506222305 | 15 | 108 | 3.2 | 9.7 | 0.00 | 0.00 | 0.00 | 73 | 1021.5 |
| 20260506221800 | 15 | 49 | 0.0 | 3.2 | 0.00 | 0.00 | 0.00 | 72 | 1021.5 |
| 20260506221258 | 15 | 68 | 3.2 | 12.9 | 0.00 | 0.00 | 0.00 | 73 | 1021.6 |
| 20260506220756 | 15 | 215 | 3.2 | 6.4 | 0.00 | 0.00 | 0.00 | 72 | 1021.6 |
| 20260506220255 | 15 | 148 | 1.6 | 6.4 | 0.00 | 0.00 | 0.00 | 73 | 1021.5 |
| 20260506215752 | 15 | 252 | 3.2 | 9.7 | 0.00 | 0.00 | 0.00 | 72 | 1021.5 |
| 20260506215248 | 15 | 214 | 4.8 | 9.7 | 0.00 | 0.00 | 0.00 | 73 | 1021.5 |
| 20260506214744 | 14 | 239 | 4.8 | 8.0 | 0.00 | 0.00 | 0.00 | 74 | 1021.6 |
| 20260506214242 | 14 | 233 | 9.7 | 12.9 | 0.00 | 0.00 | 0.00 | 75 | 1021.6 |
| 20260506213740 | 14 | 227 | 4.8 | 9.7 | 0.00 | 0.00 | 0.00 | 74 | 1021.6 |
| 20260506213237 | 15 | 226 | 1.6 | 8.0 | 0.00 | 0.00 | 0.00 | 73 | 1021.8 |
| 20260506212734 | 15 | 250 | 3.2 | 9.7 | 0.00 | 0.00 | 0.00 | 73 | 1021.7 |
| 20260506212230 | 15 | 212 | 6.4 | 8.0 | 0.00 | 0.00 | 0.00 | 72 | 1021.5 |
| 20260506211725 | 15 | 192 | 4.8 | 14.5 | 0.00 | 0.00 | 0.00 | 72 | 1021.7 |
| 20260506211222 | 15 | 244 | 8.0 | 9.7 | 0.00 | 0.00 | 0.00 | 72 | 1021.6 |
| 20260506210719 | 15 | 298 | 3.2 | 9.7 | 0.00 | 0.00 | 0.00 | 73 | 1021.7 |
| 20260506210216 | 15 | 226 | 9.7 | 12.9 | 0.00 | 0.00 | 0.00 | 73 | 1021.5 |
| 20260506205713 | 15 | 220 | 22.5 | 24.1 | 0.00 | 0.00 | 0.00 | 72 | 1021.4 |
| 20260506205208 | 15 | 113 | 3.2 | 12.9 | 0.00 | 0.00 | 0.00 | 71 | |
| 20260506204705 | 15 | 283 | 1.6 | 9.7 | 0.00 | 0.00 | 0.00 | 71 | |
| 20260506204202 | 15 | 283 | 1.6 | 9.7 | 0.00 | 0.00 | 0.00 | 71 | |
| 20260506203700 | 15 | 112 | 3.2 | 8.0 | 0.00 | 0.00 | 0.00 | 72 | |
| 20260506203157 | 15 | 223 | 3.2 | 14.5 | 0.00 | 0.00 | 0.00 | 71 | |
| 20260506202655 | 15 | 140 | 14.5 | 19.3 | 0.00 | 0.00 | 0.00 | 72 | |
| 20260506202151 | 15 | 232 | 4.8 | 14.5 | 0.00 | 0.00 | 0.00 | 72 | |
| 20260506201648 | 15 | 182 | 8.0 | 9.7 | 0.00 | 0.00 | 0.00 | 72 | |
| 20260506201144 | 15 | 174 | 6.4 | 24.1 | 0.00 | 0.00 | 0.00 | 72 | |
| 20260506200641 | 15 | 216 | 9.7 | 16.1 | 0.00 | 0.00 | 0.00 | 71 | |
| 20260506200138 | 15 | 216 | 6.4 | 12.9 | 0.00 | 0.00 | 0.00 | 74 | |
| 20260506195635 | 15 | 254 | 3.2 | 17.7 | 0.00 | 0.00 | 0.00 | 73 | |
| 20260506195131 | 15 | 217 | 6.4 | 9.7 | 0.00 | 0.00 | 0.00 | 74 | |
| 20260506194629 | 15 | 126 | 19.3 | 20.9 | 0.00 | 0.00 | 0.00 | 72 | |
| 20260506194125 | 15 | 126 | 12.9 | 14.5 | 0.00 | 0.00 | 0.00 | 74 | |
| 20260506193623 | 15 | 120 | 16.1 | 17.7 | 0.00 | 0.00 | 0.00 | 76 | |
| 20260506193120 | 14 | 127 | 8.0 | 19.3 | 0.00 | 0.00 | 0.00 | 77 | |
| 20260506192616 | 14 | 117 | 8.0 | 16.1 | 0.00 | 0.00 | 0.00 | 78 | |
| 20260506192112 | 14 | 113 | 3.2 | 11.3 | 0.00 | 0.00 | 0.00 | 78 | |
| 20260506191609 | 14 | 119 | 3.2 | 6.4 | 0.00 | 0.00 | 0.00 | 79 | |
| 20260506191105 | 13 | 118 | 8.0 | 12.9 | 0.00 | 0.00 | 0.00 | 79 | |
| 20260506190603 | 13 | 231 | 4.8 | 6.4 | 0.00 | 0.00 | 0.00 | 79 | |
| 20260506190059 | 13 | 186 | 6.4 | 8.0 | 0.00 | 0.00 | 0.00 | 80 | |
| 20260506185557 | 13 | 130 | 4.8 | 8.0 | 0.00 | 0.00 | 0.00 | 79 | |
| 20260506185053 | 13 | 205 | 3.2 | 9.7 | 0.00 | 0.00 | 0.00 | 79 | |
| 20260506184550 | 13 | 178 | 4.8 | 8.0 | 0.00 | 0.00 | 0.00 | 79 | |
| 20260506184048 | 13 | 242 | 0.0 | 4.8 | 0.00 | 0.00 | 0.00 | 81 | |
| 20260506183543 | 13 | 133 | 11.3 | 12.9 | 0.00 | 0.00 | 0.00 | 80 | |
| 20260506183040 | 13 | 183 | 1.6 | 11.3 | 0.00 | 0.00 | 0.00 | 79 | |
| 20260506182538 | 13 | 169 | 4.8 | 11.3 | 0.00 | 0.00 | 0.00 | 80 | |
| 20260506182035 | 13 | 241 | 3.2 | 9.7 | 0.00 | 0.00 | 0.00 | 81 | |
| 20260506181533 | 13 | 248 | 0.0 | 9.7 | 0.00 | 0.00 | 0.00 | 81 | |
| 20260506181029 | 13 | 86 | 3.2 | 4.8 | 0.00 | 0.00 | 0.00 | 83 | |
| 20260506180525 | 13 | 114 | 6.4 | 8.0 | 0.00 | 0.00 | 0.00 | 82 | |
| 20260506180022 | 13 | 118 | 3.2 | 3.2 | 0.00 | 0.00 | 0.00 | 83 | |
| 20260506175519 | 13 | 252 | 8.0 | 8.0 | 0.00 | 0.00 | 0.00 | 83 | |
| 20260506175015 | 13 | 119 | 6.4 | 8.0 | 0.00 | 0.00 | 0.00 | 85 | |
| 20260506174514 | 13 | 235 | 1.6 | 3.2 | 0.00 | 0.00 | 0.00 | 86 | |
| 20260506174010 | 13 | 157 | 3.2 | 6.4 | 0.00 | 0.00 | 0.00 | 85 | |
| 20260506173508 | 13 | 232 | 1.6 | 9.7 | 0.00 | 0.00 | 0.00 | 85 | |
| 20260506173004 | 13 | 234 | 6.4 | 11.3 | 0.00 | 0.00 | 0.00 | 85 | |
| 20260506172502 | 13 | 145 | 0.0 | 4.8 | 0.00 | 0.00 | 0.00 | 85 | |
| 20260506171957 | 13 | 150 | 4.8 | 9.7 | 0.00 | 0.00 | 0.00 | 84 | |
| 20260506171455 | 13 | 245 | 6.4 | 6.4 | 0.00 | 0.00 | 0.00 | 84 | |
| 20260506170953 | 13 | 294 | 0.0 | 6.4 | 0.00 | 0.00 | 0.00 | 83 | |
| 20260506170449 | 13 | 135 | 3.2 | 6.4 | 0.00 | 0.00 | 0.00 | 83 | |
| 20260506165948 | 13 | 333 | 0.0 | 9.7 | 0.00 | 0.00 | 0.00 | 83 | |
| 20260506165446 | 13 | 296 | 0.0 | 9.7 | 0.00 | 0.00 | 0.00 | 84 | |
| 20260506164942 | 13 | 88 | 1.6 | 3.2 | 0.00 | 0.00 | 0.00 | 84 | |
| 20260506164439 | 13 | 25 | 0.0 | 3.2 | 0.00 | 0.00 | 0.00 | 84 | |
| 20260506163937 | 13 | 13 | 3.2 | 3.2 | 0.00 | 0.00 | 0.00 | 84 | |
| 20260506163431 | 13 | 337 | 0.0 | 3.2 | 0.00 | 0.00 | 0.00 | 84 | |
| 20260506162926 | 13 | 61 | 3.2 | 3.2 | 0.00 | 0.00 | 0.00 | 85 | |
| 20260506162425 | 13 | 42 | 1.6 | 4.8 | 0.00 | 0.00 | 0.00 | 85 | |
| 20260506161922 | 13 | 60 | 3.2 | 4.8 | 0.00 | 0.00 | 0.00 | 86 | |
| 20260506161420 | 13 | 78 | 6.4 | 6.4 | 0.00 | 0.00 | 0.00 | 86 | |
| 20260506160917 | 13 | 92 | 4.8 | 4.8 | 0.00 | 0.00 | 0.00 | 85 | |
| 20260506160414 | 13 | 87 | 3.2 | 6.4 | 0.00 | 0.00 | 0.00 | 85 | |
| 20260506155912 | 13 | 108 | 4.8 | 8.0 | 0.00 | 0.00 | 0.00 | 85 | |
| 20260506155409 | 13 | 92 | 3.2 | 6.4 | 0.00 | 0.00 | 0.00 | 86 | |
| 20260506153531 | 12 | 101 | 4.8 | 8.0 | 0.00 | 0.00 | 0.00 | 88 | |
| 20260506153028 | 12 | 82 | 3.2 | 6.4 | 0.00 | 0.00 | 0.00 | 88 | |
| 20260506152525 | 12 | 121 | 6.4 | 8.0 | 0.00 | 0.00 | 0.00 | 88 | |
| 20260506152023 | 12 | 78 | 3.2 | 6.4 | 0.00 | 0.00 | 0.00 | 88 | |
| 20260506151520 | 12 | 70 | 3.2 | 6.4 | 0.00 | 0.00 | 0.00 | 88 | |
| 20260506151018 | 12 | 339 | 3.2 | 4.8 | 0.00 | 0.00 | 0.00 | 89 | |
| 20260506150513 | 12 | 57 | 3.2 | 4.8 | 0.00 | 0.00 | 0.00 | 90 | |
| 20260506150011 | 12 | 55 | 6.4 | 6.4 | 0.00 | 0.00 | 0.00 | 90 | |
| 20260506145507 | 12 | 61 | 4.8 | 6.4 | 0.00 | 0.00 | 0.00 | 90 | |
| 20260506145005 | 12 | 52 | 9.7 | 9.7 | 0.00 | 0.00 | 0.00 | 91 | |
| 20260506144501 | 12 | 57 | 6.4 | 8.0 | 0.00 | 0.00 | 0.00 | 92 | |
| 20260506143959 | 12 | 70 | 6.4 | 8.0 | 0.00 | 0.00 | 0.00 | 92 | |
| 20260506143456 | 12 | 57 | 4.8 | 6.4 | 0.00 | 0.00 | 0.00 | 92 | |
| 20260506142955 | 12 | 48 | 4.8 | 6.4 | 0.00 | 0.00 | 0.00 | 92 | |
| 20260506142452 | 12 | 86 | 3.2 | 8.0 | 0.00 | 0.00 | 0.00 | 91 | |
| 20260506141950 | 12 | 91 | 4.8 | 6.4 | 0.00 | 0.00 | 0.00 | 91 | |
| 20260506141447 | 12 | 78 | 3.2 | 6.4 | 0.00 | 0.00 | 0.00 | 91 | |
| 20260506140946 | 12 | 91 | 4.8 | 6.4 | 0.00 | 0.00 | 0.00 | 90 | |
| 20260506140442 | 12 | 75 | 4.8 | 4.8 | 0.00 | 0.00 | 0.00 | 90 | |
| 20260506135939 | 12 | 102 | 4.8 | 6.4 | 0.00 | 0.00 | 0.00 | 90 | |
| 20260506135437 | 12 | 76 | 3.2 | 6.4 | 0.00 | 0.00 | 0.00 | 89 | |
| 20260506134932 | 12 | 89 | 3.2 | 4.8 | 0.00 | 0.00 | 0.00 | 89 | |
| 20260506134429 | 12 | 70 | 3.2 | 4.8 | 0.00 | 0.00 | 0.00 | 89 | |
| 20260506133926 | 12 | 59 | 3.2 | 6.4 | 0.00 | 0.00 | 0.00 | 88 | |
| 20260506133423 | 12 | 50 | 4.8 | 4.8 | 0.00 | 0.00 | 0.00 | 88 | |
| 20260506132919 | 12 | 32 | 3.2 | 6.4 | 0.00 | 0.00 | 0.00 | 88 | |
| 20260506132416 | 12 | 70 | 4.8 | 4.8 | 0.00 | 0.00 | 0.00 | 88 | |
| 20260506131914 | 12 | 16 | 3.2 | 3.2 | 0.00 | 0.00 | 0.00 | 88 | |
| 20260506131410 | 12 | 60 | 4.8 | 6.4 | 0.00 | 0.00 | 0.00 | 88 | |
| 20260506130908 | 12 | 72 | 3.2 | 4.8 | 0.00 | 0.00 | 0.00 | 89 | |
| 20260506130403 | 12 | 34 | 3.2 | 6.4 | 0.00 | 0.00 | 0.00 | 89 | |
| 20260506125902 | 12 | 67 | 4.8 | 4.8 | 0.00 | 0.00 | 0.00 | 89 | |
| 20260506125400 | 12 | 27 | 4.8 | 4.8 | 0.00 | 0.00 | 0.00 | 89 | |
| 20260506124858 | 12 | 24 | 1.6 | 11.3 | 0.00 | 0.00 | 0.00 | 89 | |
| 20260506124354 | 12 | 65 | 6.4 | 6.4 | 0.00 | 0.00 | 0.00 | 89 | |
| 20260506123853 | 12 | 81 | 4.8 | 6.4 | 0.00 | 0.00 | 0.00 | 88 | |
| 20260506123351 | 12 | 34 | 3.2 | 6.4 | 0.00 | 0.00 | 0.00 | 88 | |
| 20260506122848 | 12 | 49 | 4.8 | 6.4 | 0.00 | 0.00 | 0.00 | 89 | |
| 20260506122344 | 12 | 24 | 3.2 | 6.4 | 0.00 | 0.00 | 0.00 | 89 | |
| 20260506121843 | 12 | 68 | 3.2 | 6.4 | 0.00 | 0.00 | 0.00 | 89 | |
| 20260506121339 | 12 | 41 | 3.2 | 8.0 | 0.00 | 0.00 | 0.00 | 89 | |
| 20260506120836 | 12 | 69 | 6.4 | 8.0 | 0.00 | 0.00 | 0.00 | 90 | |
| 20260506120334 | 12 | 76 | 3.2 | 8.0 | 0.00 | 0.00 | 0.00 | 90 | |
| 20260506115831 | 12 | 49 | 4.8 | 8.0 | 0.00 | 0.00 | 0.00 | 90 | |
| 20260506115329 | 12 | 55 | 3.2 | 6.4 | 0.00 | 0.00 | 0.00 | 90 | |
| 20260506114827 | 12 | 358 | 3.2 | 4.8 | 0.00 | 0.00 | 0.00 | 90 | |
| 20260506114325 | 12 | 5 | 4.8 | 6.4 | 0.00 | 0.00 | 0.00 | 90 | |
| 20260506113823 | 12 | 63 | 3.2 | 6.4 | 0.00 | 0.00 | 0.00 | 90 | |
| 20260506113320 | 12 | 24 | 3.2 | 4.8 | 0.00 | 0.00 | 0.00 | 91 | |
| 20260506112817 | 11 | 25 | 3.2 | 4.8 | 0.00 | 0.00 | 0.00 | 92 | |
| 20260506112314 | 11 | 17 | 1.6 | 4.8 | 0.00 | 0.00 | 0.00 | 92 | |
| 20260506111811 | 11 | 53 | 3.2 | 6.4 | 0.00 | 0.00 | 0.00 | 92 | |
| 20260506111309 | 11 | 75 | 3.2 | 6.4 | 0.00 | 0.00 | 0.00 | 92 | |
| 20260506110807 | 11 | 27 | 3.2 | 6.4 | 0.00 | 0.00 | 0.00 | 93 | |
| 20260506110304 | 11 | 46 | 4.8 | 6.4 | 0.00 | 0.00 | 0.00 | 93 | |
| 20260506105800 | 11 | 72 | 6.4 | 9.7 | 0.00 | 0.00 | 0.00 | 93 | |
| 20260506105257 | 11 | 108 | 3.2 | 8.0 | 0.00 | 0.00 | 0.00 | 93 | |
| 20260506104755 | 11 | 78 | 3.2 | 6.4 | 0.00 | 0.00 | 0.00 | 93 | |
| 20260506104252 | 11 | 82 | 1.6 | 8.0 | 0.00 | 0.00 | 0.00 | 93 | |
| 20260506103749 | 11 | 88 | 3.2 | 4.8 | 0.00 | 0.00 | 0.00 | 93 | |
| 20260506103247 | 11 | 82 | 3.2 | 3.2 | 0.00 | 0.00 | 0.00 | 93 | |
| 20260506102744 | 11 | 50 | 3.2 | 4.8 | 0.00 | 0.00 | 0.00 | 93 | |
| 20260506102242 | 11 | 71 | 3.2 | 6.4 | 0.00 | 0.00 | 0.00 | 93 | |
| 20260506101739 | 11 | 64 | 4.8 | 6.4 | 0.00 | 0.00 | 0.00 | 93 | |
| 20260506101235 | 11 | 84 | 3.2 | 6.4 | 0.00 | 0.00 | 0.00 | 93 | |
| 20260506100733 | 11 | 48 | 3.2 | 6.4 | 0.00 | 0.00 | 0.00 | 93 | |
| 20260506100231 | 11 | 72 | 3.2 | 6.4 | 0.00 | 0.00 | 0.00 | 93 | |
| 20260506095729 | 11 | 39 | 3.2 | 6.4 | 0.00 | 0.00 | 0.00 | 92 | |
| 20260506095226 | 11 | 66 | 3.2 | 4.8 | 0.00 | 0.00 | 0.00 | 93 | |
| 20260506094723 | 11 | 61 | 4.8 | 8.0 | 0.00 | 0.00 | 0.00 | 92 | |
| 20260506094221 | 11 | 48 | 4.8 | 8.0 | 0.00 | 0.00 | 0.00 | 93 | |
| 20260506093720 | 11 | 60 | 4.8 | 6.4 | 0.00 | 0.00 | 0.00 | 93 | |
| 20260506093216 | 11 | 56 | 3.2 | 6.4 | 0.00 | 0.00 | 0.00 | 93 | |
| 20260506092714 | 11 | 58 | 4.8 | 6.4 | 0.00 | 0.00 | 0.00 | 94 | |
| 20260506092211 | 11 | 46 | 4.8 | 6.4 | 0.00 | 0.00 | 0.00 | 94 | |
| 20260506091709 | 11 | 24 | 3.2 | 4.8 | 0.00 | 0.00 | 0.00 | 94 | |
| 20260506091206 | 11 | 10 | 4.8 | 6.4 | 0.00 | 0.00 | 0.00 | 94 | |
| 20260506090704 | 11 | 14 | 4.8 | 6.4 | 0.00 | 0.00 | 0.00 | 94 | |
| 20260506090200 | 11 | 34 | 3.2 | 4.8 | 0.00 | 0.00 | 0.00 | 94 | |
| 20260506085657 | 11 | 51 | 3.2 | 4.8 | 0.00 | 0.00 | 0.00 | 93 | |
| 20260506085153 | 11 | 50 | 3.2 | 3.2 | 0.00 | 0.00 | 0.00 | 93 | |
| 20260506084650 | 11 | 65 | 3.2 | 4.8 | 0.00 | 0.00 | 0.00 | 93 | |
| 20260506084147 | 11 | 30 | 1.6 | 4.8 | 0.00 | 0.00 | 0.00 | 93 | |
| 20260506083644 | 11 | 48 | 3.2 | 4.8 | 0.00 | 0.00 | 0.00 | 93 | |
| 20260506083141 | 11 | 38 | 1.6 | 3.2 | 0.00 | 0.00 | 0.00 | 93 | |
| 20260506082638 | 11 | 42 | 1.6 | 4.8 | 0.00 | 0.00 | 0.00 | 93 | |
| 20260506082133 | 11 | 52 | 3.2 | 4.8 | 0.00 | 0.00 | 0.00 | 92 | |
| 20260506081632 | 11 | 61 | 3.2 | 4.8 | 0.00 | 0.00 | 0.00 | 92 | |
| 20260506081129 | 12 | 67 | 4.8 | 6.4 | 0.00 | 0.00 | 0.00 | 92 | |
| 20260506080627 | 12 | 30 | 3.2 | 4.8 | 0.00 | 0.00 | 0.00 | 92 | |
| 20260506080123 | 12 | 55 | 6.4 | 6.4 | 0.00 | 0.00 | 0.00 | 92 | |
| 20260506073107 | 12 | 41 | 4.8 | 6.4 | 0.00 | 0.00 | 0.00 | 89 | |
| 20260506072603 | 13 | 68 | 6.4 | 8.0 | 0.00 | 0.00 | 0.00 | 89 | |
| 20260506072102 | 13 | 45 | 4.8 | 6.4 | 0.00 | 0.00 | 0.00 | 88 | |
| 20260506071559 | 13 | 60 | 4.8 | 6.4 | 0.00 | 0.00 | 0.00 | 89 | |
| 20260506071056 | 13 | 57 | 4.8 | 6.4 | 0.00 | 0.00 | 0.00 | 88 | |
| 20260506070554 | 13 | 64 | 3.2 | 4.8 | 0.00 | 0.00 | 0.00 | 88 | |
| 20260506062033 | 13 | 16 | 3.2 | 4.8 | 0.00 | 0.00 | 0.00 | 86 | |
| 20260506061529 | 13 | 10 | 4.8 | 4.8 | 0.00 | 0.00 | 0.00 | 86 | |
| 20260506061027 | 13 | 43 | 3.2 | 4.8 | 0.00 | 0.00 | 0.00 | 85 | |
| 20260506060525 | 13 | 6 | 3.2 | 4.8 | 0.00 | 0.00 | 0.00 | 85 | |
| 20260506050954 | 15 | 54 | 4.8 | 6.4 | 0.00 | 0.00 | 0.00 | 81 | |
| 20260506050452 | 15 | 54 | 4.8 | 6.4 | 0.00 | 0.00 | 0.00 | 80 | |
| 20260506044942 | 15 | 51 | 4.8 | 8.0 | 0.00 | 0.00 | 0.00 | 79 | |
| 20260506044440 | 15 | 60 | 4.8 | 8.0 | 0.00 | 0.00 | 0.00 | 79 | |
| 20260506043936 | 15 | 50 | 4.8 | 6.4 | 0.00 | 0.00 | 0.00 | 78 | |
| 20260506043434 | 15 | 60 | 6.4 | 8.0 | 0.00 | 0.00 | 0.00 | 78 | |
| 20260506042931 | 15 | 58 | 4.8 | 6.4 | 0.00 | 0.00 | 0.00 | 77 | |
| 20260506042431 | 16 | 65 | 6.4 | 6.4 | 0.00 | 0.00 | 0.00 | 77 | |
| 20260506041928 | 16 | 57 | 3.2 | 6.4 | 0.00 | 0.00 | 0.00 | 76 | |
| 20260506041426 | 16 | 50 | 6.4 | 6.4 | 0.00 | 0.00 | 0.00 | 75 | |
| 20260506040923 | 16 | 56 | 3.2 | 6.4 | 0.00 | 0.00 | 0.00 | 74 | |
| 20260506040421 | 16 | 51 | 3.2 | 3.2 | 0.00 | 0.00 | 0.00 | 74 | |
| 20260506035916 | 16 | 50 | 3.2 | 3.2 | 0.00 | 0.00 | 0.00 | 73 | |
| 20260506035414 | 16 | 55 | 3.2 | 4.8 | 0.00 | 0.00 | 0.00 | 72 | |
| 20260506034911 | 16 | 63 | 3.2 | 3.2 | 0.00 | 0.00 | 0.00 | 72 | |
| 20260506034408 | 17 | 61 | 3.2 | 3.2 | 0.00 | 0.00 | 0.00 | 71 | |
| 20260506033905 | 17 | 45 | 3.2 | 3.2 | 0.00 | 0.00 | 0.00 | 71 | |
| 20260506033402 | 17 | 65 | 1.6 | 3.2 | 0.00 | 0.00 | 0.00 | 70 | |
| 20260506032859 | 17 | 36 | 3.2 | 4.8 | 0.00 | 0.00 | 0.00 | 70 | |
| 20260506032355 | 17 | 23 | 1.6 | 4.8 | 0.00 | 0.00 | 0.00 | 69 | |
| 20260506031852 | 17 | 60 | 3.2 | 3.2 | 0.00 | 0.00 | 0.00 | 69 | |
| 20260506031350 | 17 | 50 | 3.2 | 4.8 | 0.00 | 0.00 | 0.00 | 68 | |
| 20260506030847 | 17 | 30 | 3.2 | 4.8 | 0.00 | 0.00 | 0.00 | 68 | |
| 20260506030345 | 18 | 59 | 4.8 | 6.4 | 0.00 | 0.00 | 0.00 | 67 | |
| 20260506025842 | 18 | 70 | 4.8 | 4.8 | 0.00 | 0.00 | 0.00 | 66 | |
| 20260506025338 | 18 | 54 | 4.8 | 4.8 | 0.00 | 0.00 | 0.00 | 66 | |
| 20260506024835 | 18 | 50 | 3.2 | 6.4 | 0.00 | 0.00 | 0.00 | 65 | |
| 20260506024332 | 18 | 63 | 3.2 | 4.8 | 0.00 | 0.00 | 0.00 | 64 | |
| 20260506023828 | 18 | 63 | 1.6 | 6.4 | 0.00 | 0.00 | 0.00 | 64 | |
| 20260506023325 | 18 | 60 | 3.2 | 4.8 | 0.00 | 0.00 | 0.00 | 64 | |
| 20260506022822 | 18 | 77 | 3.2 | 4.8 | 0.00 | 0.00 | 0.00 | 63 | |
| 20260506022320 | 19 | 52 | 3.2 | 8.0 | 0.00 | 0.00 | 0.00 | 62 | |
| 20260506021818 | 18 | 117 | 6.4 | 6.4 | 0.00 | 0.00 | 0.00 | 63 | |
| 20260506021314 | 18 | 92 | 4.8 | 6.4 | 0.00 | 0.00 | 0.00 | 64 | |
| 20260506020811 | 18 | 74 | 8.0 | 9.7 | 0.00 | 0.00 | 0.00 | 63 | |
| 20260506020309 | 18 | 45 | 3.2 | 6.4 | 0.00 | 0.00 | 0.00 | 63 | |
| 20260506015807 | 18 | 57 | 6.4 | 8.0 | 0.00 | 0.00 | 0.00 | 63 | |
| 20260506015306 | 18 | 84 | 6.4 | 9.7 | 0.00 | 0.00 | 0.00 | 63 | |
| 20260506014800 | 18 | 82 | 4.8 | 9.7 | 0.00 | 0.00 | 0.00 | 63 | |
| 20260506014257 | 19 | 66 | 4.8 | 8.0 | 0.00 | 0.00 | 0.00 | 62 | |
| 20260506013754 | 20 | 74 | 3.2 | 3.2 | 0.00 | 0.00 | 0.00 | 61 | |
| 20260506013251 | 19 | 85 | 3.2 | 4.8 | 0.00 | 0.00 | 0.00 | 62 |